CDT,Max TemperatureF,Mean TemperatureF,Min TemperatureF,Max Dew PointF,MeanDew PointF,Min DewpointF,Max Humidity, Mean Humidity, Min Humidity, Max Sea Level PressureIn, Mean Sea Level PressureIn, Min Sea Level PressureIn, Max VisibilityMiles, Mean VisibilityMiles, Min VisibilityMiles, Max Wind SpeedMPH, Mean Wind SpeedMPH, Max Gust SpeedMPH,PrecipitationIn, CloudCover, Events, WindDirDegrees
2013-9-1,95,82,68,73,70,66,100,73,41,29.95,29.89,29.82,10,8,2,7,1,,0.00,1,,226
2013-9-2,86,77,68,73,70,68,100,82,58,29.99,29.92,29.87,10,9,5,8,1,,0.00,2,,165
2013-9-3,91,80,68,73,67,63,100,73,40,30.01,29.95,29.91,10,9,3,9,2,,0.00,2,,8
2013-9-4,89,76,62,66,62,55,100,67,33,30.10,30.05,29.99,10,10,7,9,1,,0.00,0,,39
2013-9-5,91,76,62,66,64,61,100,69,38,30.15,30.10,30.06,10,10,5,8,1,,0.00,1,,92
2013-9-6,89,76,62,68,63,55,100,72,31,30.15,30.09,30.03,10,9,3,6,1,,0.00,0,,64
2013-9-7,91,76,62,72,67,61,100,76,43,30.09,30.04,29.98,10,9,5,7,0,,0.00,0,,146
2013-9-8,91,78,64,70,67,63,100,74,41,30.03,29.99,29.94,10,8,2,6,0,,0.00,1,,149
2013-9-9,93,80,66,70,67,63,100,70,36,30.08,30.02,29.98,10,9,4,7,1,,0.00,0,,160
2013-9-10,95,82,69,73,70,68,100,75,41,30.15,30.11,30.06,10,8,4,12,1,17,0.05,2,Rain-Thunderstorm,109
2013-9-11,91,78,66,72,67,63,100,74,38,30.19,30.13,30.07,10,8,2,9,1,,0.00,1,,128
2013-9-12,91,76,62,70,64,57,100,70,31,30.09,30.02,29.93,10,9,4,7,0,,0.00,1,,203
2013-9-13,87,78,68,70,63,55,100,67,35,29.97,29.93,29.88,10,9,4,14,4,30,0.02,2,Rain,13
2013-9-14,80,68,55,55,51,41,94,62,24,30.05,30.01,29.98,10,10,10,10,2,,0.00,0,,15
2013-9-15,89,70,50,61,55,48,100,65,31,30.12,30.07,30.04,10,10,10,9,1,,0.00,0,,115
2013-9-16,91,74,57,64,59,54,100,66,29,30.14,30.10,30.05,10,10,7,10,1,,0.00,0,,16
2013-9-17,89,74,59,64,60,55,100,66,31,30.15,30.09,30.03,10,10,5,10,2,,0.00,0,,76
2013-9-18,82,76,69,70,68,63,94,81,62,30.16,30.09,30.05,10,8,3,12,5,,0.00,4,,126
2013-9-19,89,76,64,66,65,63,100,71,40,30.13,30.06,30.00,10,9,3,10,2,,0.00,1,,137
2013-9-20,86,76,66,73,68,64,100,83,58,30.03,29.93,29.82,10,8,2,15,2,23,2.23,3,Rain-Thunderstorm,147
2013-9-21,77,68,60,70,65,55,100,86,65,29.88,29.82,29.75,10,9,2,8,3,20,1.72,5,Rain,358
2013-9-22,77,64,51,59,54,50,100,75,41,29.91,29.87,29.83,10,10,7,17,2,21,0.00,0,,23
2013-9-23,84,68,51,66,58,52,100,74,37,29.94,29.90,29.87,10,10,4,10,2,16,0.00,0,,101
2013-9-24,73,70,68,70,68,66,100,93,83,29.93,29.87,29.79,10,7,1,10,4,22,0.93,7,Rain-Thunderstorm,113
2013-9-25,82,75,66,72,68,64,100,87,54,29.84,29.81,29.77,10,7,0,5,0,,0.00,6,Fog,140
2013-9-26,77,68,60,68,65,61,100,91,69,29.99,29.93,29.83,10,5,0,8,1,,0.00,4,Fog,94
2013-9-27,82,70,57,68,62,55,100,82,48,30.10,30.04,29.99,10,7,0,7,1,,0.00,2,Fog,139
2013-9-28,80,68,55,61,58,55,100,76,42,30.15,30.09,30.05,10,10,4,10,2,,0.00,0,,129
2013-9-29,69,62,55,64,60,55,100,87,73,30.09,30.04,29.99,10,10,5,8,2,,0.02,5,Rain,140
2013-9-30,71,66,62,64,63,61,100,90,73,30.03,29.99,29.96,10,10,4,10,3,,0.00,6,Rain-Thunderstorm,137